User: anonymous   Login
Location: Austin
(30.3000°N, 97.7500°W)
Time: 05:56:41
(UTC-05:00)
Language:

Cosmos 2082 Rocket - Orbit

View from above orbital plane
View from above orbital plane
View from above satellite
View from above satellite

Ground track
Ground track

The orbit data is extracted from the following two-line orbital elements,

1 20625U 90046B   25173.12279112  .00000248  00000-0  15267-3 0  9995
2 20625  70.9983 125.1270 0014942 332.9934  27.0410 14.14964791811789
Epoch (UTC): 22 June 2025 02:56:49
Eccentricity: 0.0014942
inclination: 70.9983°
perigee height: 831 km
apogee height: 853 km
right ascension of ascending node: 125.1270°
argument of perigee: 332.9934°
revolutions per day: 14.14964791
mean anomaly at epoch: 27.0410°
orbit number at epoch: 81178

The dashed part of the orbit path shows where the satellite is in the earth's shadow,  

DLR